Find Local Weather

World > North America > United States > Maryland

Betterton, Maryland Regional Weather

Lat: 39.37N, Lon: 76.06W
Wx Zone: MDZ012
Feedback
Expires:201806180400;;707059
ASUS41 KPHI 180313
RWRPHI

REGIONAL WEATHER ROUNDUP
NATIONAL WEATHER SERVICE MOUNT HOLLY NJ
1100 PM EDT SUN JUN 17 2018

NOTE:  "FAIR" INDICATES FEW OR NO CLOUDS BELOW 12,000 FEET WITH NO
SIGNIFICANT WEATHER AND/OR OBSTRUCTIONS TO VISIBILITY.

 * = STATION DOES NOT REPORT PRECIPITATION (E.G. RAIN, SNOW, ETC.) 
        OR FOG.


DEZALL-MDZ008-012-015-019-020-180400-
DELAWARE AND EASTERN MARYLAND
  
CITY           SKY/WX    TMP DP  RH WIND       PRES   REMARKS
WILMINGTON     FAIR      73  71  93 S8        30.08S                  
GEORGETOWN     FAIR      72  69  90 S6        30.10S                  
EASTON         FAIR      78  68  70 S7        30.12F                  
PATUXENT       FAIR      79  73  82 SE9       30.08                   
OCEAN CITY     FAIR      71  71 100 VRB5      30.11S                  
WALLOPS ISLAND FAIR      74  72  93 SE7       30.10F                  
CAMBRIDGE      CLOUDY    77  70  78 SE8       30.09F                  
SALISBURY      FAIR      72  70  93 SE3       30.10R                  

$$

SKY/WX - Weather  TMP - Temperature  DP - Dewpoint  RH - Relative Humidity
WIND - Wind Direction/Speed PRES - Barometric Pressure